DMSP 5D-2 F13 DEB, 40521

Orbit data source: Space-Track

DMSP 5D-2 F13 DEB, 40521 is space debris in SSO originally from a launch on Fri, 24 Mar 1995 UTC launched from the Air Force Western Test Range (AFWTR). Debris objects in space refer to the collection of defunct objects orbiting the Earth. Examples of debris include non-operational satellites, rocket bodies, and fragments generated from explosions, collisions, or faulty payload assembly.

Loading next visibility...
Identifier
40521, 1995-015DH
Orbit
SSO
Country
Flag of USUS
Related business
Manufacturer
Unknown
Mission
Spacecraft
Bus & Motor
Unknown
Mass
Unknown
Launch date (UTC)
1995-03-24 (31 years ago)
Launch vehicle
Unknown
Launch site
Air Force Western Test Range (AFWTR)
Object type
Payload
Rocket body
Debris
Shape & HBR
Unknown shape, 0.1 m
Radar Cross Section
Small (<0.1 m²)

Expand to show TLE details & history
Last TLE update: 3 days ago

TLE from 3 days ago
0 DMSP 5D-2 F13 DEB
1 40521U 95015DH  26032.43925299  .00010598  00000-0  21773-2 0  9993
2 40521  98.5923 113.1691 0024709 164.2832 195.9140 14.60616321568435
Epoch: 2026-02-01T10:32Z
TLE epoch observation values (Epoch: 2026-02-01T10:32:31.458Z)
Latitude
0.00003°
Longitude
-176.61085°
Altitude
710.963 km
Speed
7.491 km/s
True Right ascension
07h 32m 40s
True Declination
0° 00' 00"
Sunlit
Object was in full shadow at epoch
Visualization orbit readout
Latitude
Unknown
Longitude
Unknown
Altitude
Unknown
Speed
Unknown
Apparent Right ascension
Unknown
Apparent Declination
Unknown
Sunlit
N/A
Visualization observer readout
Local Sidereal Time
22:21:23
Azimuth
Unknown
Elevation
Unknown
Doppler factor
Unknown
Orbital elements
Apogee altitude
705.744 km
Perigee altitude
670.823 km
Semi-major axis
7,066.42 km
Eccentricity
0.00247
Inclination
98.5923°
RAAN
113.1691°
Arg. of periapsis
164.2832°
True anomaly
195.83659°
Mean anomaly
195.914°
Eccentric anomaly
195.87527°
Mean motion
3.65379 °/min
Orbital period
98.53 mins
BSTAR
0.0021773
Loading maneuver chart data...
Computing Atmospheric mass density...

Documentation

Showing up to 5 results
|